Content
SEND FEEDBACK

Daily
Averages
Monthly
Summary
United States of America

CHELSEA, MICHIGAN


Home > North America > United States > Michigan
Elevation: 900 feet     Latitude: 42 19N     Longitude: 084 01W

WEATHER
 
SELECT A DAY
Number of Records: 206,981;   Date Range: 1/1/95 - 10/20/14
 
SHARE

PRINT THIS DATA

[ ← Previous Day ]
WEATHER ALMANAC - JULY 6, 2013
[ Next Day → ]
[ °C ]   °F
Weather ElementAverageHighLow
Temperature70.4 °F82 °F (12:53 pm)64 °F (2:53 am)
Dewpoint67.3 °F71.6 °F (4:45 pm)62.6 °F (6:36 am)
Humidity90.8 %100 % (2:46 am)65 % (11:16 am)
Barometer30.08 in30.12 in (7:31 am)30.00 in (7:53 pm)
Wind Speed2.1 mph10.4 mph (4:45 pm)
Wind Gust17.3 mph (4:45 pm)
Weather ElementAverage
Visibility4.7 mi
Wind DirectionENE (59.8 °)

Weather ElementTotal
Precipitation0.33 in
Cooling Degree Days8 (Base 65)
Growing Degree Days23 (Base 50)
Averaged from 49 records on July 6, 2013
WEATHER CONDITIONS BREAKOUT
WIND DIRECTION BREAKOUT
WEATHER BY HOUR - JULY 6, 2013
[ °C ]   °F
Local TimeTemperatureDewpointHumidityBarometerVisibilityWind DirectionWind SpeedGust SpeedPrecipitationEventsConditions
1:53 AM66.0 °F64.9 °F96 %30.10 in5.0 miCalmClear
2:18 AM66.2 °F64.4 °F94 %30.11 in1.8 miCalmClear
2:21 AM66.2 °F64.4 °F94 %30.11 in0.8 miCalmClear
2:46 AM66.2 °F66.2 °F100 %30.11 in1.8 miCalmClear
2:53 AM64.0 °F64.0 °F100 %30.10 in1.0 miCalmClear
3:11 AM64.4 °F64.4 °F100 %30.11 in0.5 miSouth (190°)4.6 mphFogFog
3:17 AM64.4 °F64.4 °F100 %30.11 in1.8 miCalmClear
3:19 AM64.4 °F64.4 °F100 %30.11 in3.0 miCalmClear
3:53 AM66.9 °F66.0 °F97 %30.09 in4.0 miSouth (190°)3.5 mphClear
4:48 AM66.2 °F66.2 °F100 %30.10 in1.8 miCalmClear
4:53 AM66.9 °F66.0 °F97 %30.09 in1.0 miCalmClear
5:27 AM66.2 °F64.4 °F94 %30.11 in2.0 miCalmClear
5:41 AM66.2 °F66.2 °F100 %30.11 in3.0 miCalmClear
5:53 AM66.0 °F64.9 °F96 %30.09 in4.0 miCalmClear
6:04 AM64.4 °F64.4 °F100 %30.11 in1.8 miCalmClear
6:08 AM64.4 °F64.4 °F100 %30.11 in0.8 miCalmClear
6:25 AM64.4 °F64.4 °F100 %30.11 in1.8 miCalmClear
6:36 AM64.4 °F62.6 °F94 %30.11 in0.8 miCalmClear
6:39 AM64.4 °F62.6 °F94 %30.11 in0.2 miCalmFogFog
6:53 AM64.9 °F64.0 °F97 %30.10 in0.2 miCalmFogFog
7:03 AM64.4 °F64.4 °F100 %30.11 in0.2 miCalmFogFog
7:10 AM66.2 °F64.4 °F94 %30.11 in1.5 miCalmPartly Cloudy
7:13 AM66.2 °F66.2 °F100 %30.11 in3.0 miCalmPartly Cloudy
7:31 AM66.2 °F66.2 °F100 %30.12 in2.0 miCalmClear
7:51 AM69.8 °F69.8 °F100 %30.12 in4.0 miCalmClear
7:53 AM69.1 °F69.1 °F100 %30.11 in4.0 miCalmClear
8:53 AM73.9 °F68.0 °F82 %30.12 in9.0 miCalmPartly Cloudy
9:53 AM77.0 °F69.1 °F76 %30.11 in10.0 miCalmOvercast
10:53 AM79.0 °F68.0 °F69 %30.10 in10.0 miCalmMostly Cloudy
11:08 AM78.8 °F69.8 °F74 %30.11 in10.0 miVariable4.6 mphMostly Cloudy
11:16 AM80.6 °F68.0 °F65 %30.11 in10.0 miSSW (210°)5.8 mphScattered Clouds
11:53 AM81.0 °F69.1 °F67 %30.10 in10.0 miVariable3.5 mphMostly Cloudy
12:53 PM82.0 °F69.1 °F65 %30.08 in10.0 miSouth (180°)8.1 mphMostly Cloudy
1:53 PM80.1 °F69.1 °F69 %30.07 in10.0 miSouth (180°)6.9 mphMostly Cloudy
2:53 PM82.0 °F69.1 °F65 %30.05 in10.0 miSouth (190°)6.9 mphPartly Cloudy
3:53 PM80.1 °F70.0 °F71 %30.04 in10.0 miSE (140°)8.1 mphOvercast
4:45 PM73.4 °F71.6 °F94 %30.05 in1.8 miSouth (190°)10.4 mph17.3 mph0.06 inRainHeavy Rain
4:53 PM73.0 °F71.1 °F93 %30.04 in2.0 miSouth (190°)6.9 mph0.11 inRainRain
5:00 PM73.4 °F71.6 °F94 %30.05 in1.8 miSSW (200°)5.8 mph0.03 inRainRain
5:09 PM73.4 °F71.6 °F94 %30.06 in3.0 miSSW (210°)4.6 mph0.04 inRainLight Rain
5:53 PM75.0 °F71.1 °F87 %30.02 in9.0 miCalm0.07 inRainLight Rain
6:53 PM73.9 °F70.0 °F87 %30.01 in5.0 miSouth (170°)5.8 mph0.01 inRainLight Rain
7:53 PM73.0 °F70.0 °F90 %30.00 in10.0 miESE (110°)5.8 mph0.00 inMostly Cloudy
8:14 PM73.4 °F69.8 °F88 %30.01 in10.0 miSE (140°)4.6 mphScattered Clouds
8:53 PM72.0 °F69.1 °F91 %30.01 in10.0 miCalmMostly Cloudy
9:53 PM71.1 °F69.1 °F93 %30.01 in5.0 miCalm0.01 inOvercast
10:53 PM71.1 °F70.0 °F96 %30.03 in8.0 miSW (220°)3.5 mphOvercast
11:18 PM71.6 °F69.8 °F94 %30.04 in8.0 miCalmOvercast
11:53 PM71.1 °F70.0 °F96 %30.04 in7.0 miSW (220°)4.6 mphOvercast
Hourly data recorded from KARB, located miles away from Chelsea, Michigan







STORIES FROM OUR PARTNERS